SCP
0 0 0 0 0 0 0 0 0 0 0 0 0 0 0 0 0 0 0 0 0 0 0 0 0 0 0 0 0 0 0 0 0 0 0 0 0 0 0 0 0 0 0
0 0 0 0 0 0 0 0 0 0 0 0 0 0 0 0 0 0 0 0 0 0 0 0 0 0 0 0 0 0 0 0 0 0 0 0 0 0 0 0 0 0 0
0 0 0 0 0 0 0 0 0 0 0 0 0 0 0 0 0 0 0 0 0 0 0 0 0 0 0 0 0 0 0 0 0 0 0 0 0 0 0 0 0 0 0
0 0 0 0 0 0 0 0 0 0 0 0 0 0 0 0 0 0 0 0 0 0 0 0 0 0 0 0 0 0 0 0 0 0 0 0 0 0 0 0 0 0 0
0 0 0 0 0 0 0 0 0 0 0 0 0 0 0 0 0 0 0 0 0 0 0 0 0 0 0 0 0 0 0 0 0 0 0 0 0 0 0 0 0 0 0
0 0 0 0 0 0 0 0 0 0 0 0 0 0 0 0 0 0 0 0 0 0 0 0 0 0 0 0 0 0 0 0 0 0 0 0 0 0 0 0 0 0 0
0 0 0 0 0 0 0 0 0 0 0 0 0 0 0 0 0 0 0 0 0 0 0 0 0 0 0 0 0 0 0 0 0 0 0 0 0 0 0 0 0 0 0
0 0 0 0 0 0 0 0 0 0 0 0 0 0 0 0 0 0 0 0 0 0 0 0 0 0 0 0 0 0 0 0 0 0 0 0 0 0 0 0 0 0 0
0 0 0 0 0 0 0 0 0 0 0 0 0 0 0 0 0 0 0 0 0 0 0 0 0 0 0 0 0 0 0 0 0 0 0 0 0 0 0 0 0 0 0
0 0 0 0 0 0 0 0 0 0 0 0 0 0 0 0 0 0 0 0 0 0 0 0 0 0 0 0 0 0 0 0 0 0 0 0 0 0 0 0 0 0 0
0 0 0 0 0 0 0 0 0 0 0 0 0 0 0 0 0 0 0 0 0 0 0 0 0 0 0 0 0 0 0 0 0 0 0 0 0 0 0 0 0 0 0
0 0 0 0 0 0 0 0 0 0 0 0 0 0 0 0 0 0 0 0 0 0 0 0 0 0 0 0 0 0 0 0 0 0 0 0 0 0 0 0 0 0 0
0 0 0 0 0 0 0 0 0 0 0 0 0 0 0 0 0 0 0 0 0 0 0 0 0 0 0 0 0 0 0 0 0 0 0 0 0 0 0 0 0 0 0
0 0 0 0 0 0 0 0 0 0 0 0 0 0 0 0 0 0 0 0 0 0 0 0 0 0 0 0 0 0 0 0 0 0 0 0 0 0 0 0 0 0 0
0 0 0 0 0 0 0 0 0 0 0 0 0 0 0 0 0 0 0 0 0 0 0 0 0 0 0 0 0 0 0 0 0 0 0 0 0 0 0 0 0 0 0
0 0 0 0 0 0 0 0 0 0 0 0 0 0 0 0 0 0 0 0 0 0 0 0 0 0 0 0 0 0 0 0 0 0 0 0 0 0 0 0 0 0 0
0 0 0 0 0 0 0 0 0 0 0 0 0 0 0 0 0 0 0 0 0 0 0 0 0 0 0 0 0 0 0 0 0 0 0 0 0 0 0 0 0 0 0
0 0 0 0 0 0 0 0 0 0 0 0 0 0 0 0 0 0 0 0 0 0 0 0 0 0 0 0 0 0 0 0 0 0 0 0 0 0 0 0 0 0 0
0 0 0 0 0 0 0 0 0 0 0 0 0 0 0 0 0 0 0 0 0 0 0 0 0 0 0 0 0 0 0 0 0 0 0 0 0 0 0 0 0 0 0
0 0 0 0 0 0 0 0 0 0 0 0 0 0 0 0 0 0 0 0 0 0 0 0 0 0 0 0 0 0 0 0 0 0 0 0 0 0 0 0 0 0 0
0 0 0 0 0 0 0 0 0 0 0 0 0 0 0 0 0 0 0 0 0 0 0 0 0 0 0 0 0 0 0 0 0 0 0 0 0 0 0 0 0 0 0
0 0 0 0 0 0 0 0 0 0 0 0 0 0 0 0 0 0 0 0 0 0 0 0 0 0 0 0 0 0 0 0 0 0 0 0 0 0 0 0 0 0 0
0 0 0 0 0 0 0 0 0 0 0 0 0 0 0 0 0 0 0 0 0 0 0 0 0 0 0 0 0 0 0 0 0 0 0 0 0 0 0 0 0 0 0
0 0 0 0 0 0 0 0 0 0 0 0 0 0 0 0 0 0 0 0 0 0 0 0 0 0 0 0 0 0 0 0 0 0 0 0 0 0 0 0 0 0 0
0 0 0 0 0 0 0 0 0 0 0 0 0 0 0 0 0 0 0 0 0 0 0 0 0 0 0 0 0 0 0 0 0 0 0 0 0 0 0 0 0 0 0
0 0 0 0 0 0 0 0 0 0 0 0 0 0 0 0 0 0 0 0 0 0 0 0 0 0 0 0 0 0 0 0 0 0 0 0 0 0 0 0 0 0 0
Wind_Speed_500mb
9 9 9 10 10 9 10 10 9 8 9 10 11 13 15 15 16 16 20 21 21 22 22 21 22 23 22 21 22 22 22 21 24 25 25 26 25 24 25 25 26 25 24
14 15 14 14 14 14 15 15 15 16 16 16 16 17 18 20 21 23 25 31 32 31 30 30 31 29 28 27 27 26 28 29 31 31 29 32 32 32 32 34 35 32 31
21 20 20 20 20 18 17 18 22 24 25 27 29 31 34 35 37 39 40 43 47 47 46 44 42 42 39 39 39 38 37 39 39 41 39 36 37 40 40 43 41 39 37
24 25 25 26 25 26 23 22 27 32 34 37 41 42 39 46 47 49 50 54 56 59 60 58 56 55 54 53 50 49 48 49 47 52 53 49 46 46 46 48 51 49 48
23 26 29 28 31 29 30 30 32 38 41 44 49 52 55 57 58 60 63 64 64 66 69 68 68 66 64 64 64 56 57 58 59 59 63 66 66 57 55 54 57 56 54
28 29 29 31 34 35 35 40 43 45 47 54 60 63 66 66 70 71 71 75 76 76 74 73 76 76 73 72 72 72 67 65 70 70 71 74 73 71 69 63 62 64 63
34 35 35 36 38 42 41 44 45 49 52 53 67 69 74 74 69 77 81 73 76 75 78 80 74 81 74 76 75 73 77 77 73 76 82 81 86 83 86 81 75 73 72
43 39 40 40 40 42 46 45 48 53 56 55 64 73 69 71 75 67 63 79 70 64 67 74 73 73 68 73 71 74 79 81 83 79 82 87 90 98 95 94 89 86 83
33 34 34 34 38 39 44 45 48 51 57 58 58 62 43 56 62 76 63 66 67 72 77 72 70 80 76 77 79 78 85 79 78 83 88 86 91 95 95 104 102 96 92
26 27 30 32 34 36 41 42 43 49 51 59 59 66 67 70 70 65 67 76 80 76 80 84 87 82 83 82 84 88 85 83 83 85 84 86 85 89 97 92 101 112 107
17 18 26 29 30 33 38 41 44 48 51 58 60 66 69 71 75 71 91 79 85 95 92 89 84 89 84 92 91 85 82 79 78 82 84 84 86 87 90 94 99 95 112
16 25 29 33 35 37 37 41 44 47 51 55 61 63 69 71 72 80 84 100 97 100 97 91 91 84 86 85 80 76 72 69 70 72 77 80 84 87 87 88 96 101 101
7 8 12 15 19 24 29 34 38 42 48 53 57 63 64 68 73 75 77 94 102 108 90 83 91 79 77 78 78 76 74 71 69 69 70 70 71 75 78 83 88 94 102
14 16 19 21 24 27 32 35 38 40 45 47 51 54 58 61 58 68 71 75 94 103 100 84 76 75 75 71 78 76 75 78 74 72 75 76 77 81 83 84 84 85 91
18 22 26 29 31 35 37 41 45 48 49 52 55 56 58 61 62 61 60 65 69 88 116 90 82 79 79 83 86 86 85 89 82 82 78 78 82 84 84 84 87 88 84
24 28 31 35 39 42 46 49 51 52 57 56 58 61 62 64 65 65 66 65 67 74 93 114 94 85 87 89 87 92 94 79 87 86 80 81 81 82 83 84 86 88 90
32 36 40 44 49 53 56 59 60 62 64 66 64 67 69 67 70 71 72 74 70 69 83 116 101 97 98 97 100 94 89 90 87 86 85 85 78 77 80 86 89 93 94
37 44 48 53 55 56 58 61 65 66 68 72 73 75 76 75 76 76 78 80 79 76 76 93 112 99 87 91 96 98 94 91 93 90 86 86 80 80 80 82 86 89 93
47 51 54 55 55 57 59 61 66 69 70 72 73 74 76 77 80 80 81 83 80 78 75 77 98 98 97 87 92 89 94 92 87 87 85 85 82 79 80 82 83 84 87
49 48 50 54 58 61 63 68 72 76 78 79 78 78 79 78 80 82 86 86 86 84 78 76 82 87 84 89 83 86 91 92 96 96 91 86 84 81 77 73 73 76 79
48 53 57 59 63 67 71 75 79 83 85 87 85 83 81 80 79 79 84 88 81 79 78 70 74 76 80 85 85 91 94 97 98 96 94 93 81 79 72 61 61 59 53
54 58 62 68 71 73 75 77 80 87 90 90 92 90 89 89 85 81 78 77 70 65 69 68 74 80 88 88 88 86 81 80 82 78 75 88 79 74 62 53 52 43 41
61 65 68 72 75 75 77 80 82 87 90 89 89 92 93 90 87 83 79 75 69 64 63 65 72 77 81 80 78 80 79 79 82 80 71 80 73 65 53 47 41 38 46
68 72 74 75 77 75 76 77 80 82 84 84 82 83 85 86 80 75 77 74 71 71 68 60 57 66 68 69 68 73 75 78 77 72 59 60 56 49 42 32 25 25 36
72 74 73 74 76 75 75 75 75 75 78 79 77 78 78 78 75 61 61 69 71 67 62 60 61 59 54 53 54 60 62 59 56 45 38 35 33 34 29 19 7 11 33
70 72 72 72 75 79 76 75 74 72 75 77 76 75 73 68 57 52 56 62 70 67 61 61 50 40 37 40 40 36 35 32 32 29 23 17 24 13 4 8 8 25 37
Wind_Direction_500mb
271 276 282 291 297 304 311 318 315 319 322 328 324 330 334 339 336 325 316 319 317 317 315 318 311 308 304 301 298 288 281 260 258 262 246 236 234 229 219 216 211 223 217
267 270 274 280 286 293 297 303 304 306 307 313 313 310 308 308 300 298 291 298 305 305 303 302 302 299 287 287 286 283 269 254 251 262 258 251 240 242 231 222 221 222 230
264 272 278 281 282 282 291 305 310 309 307 301 306 305 302 303 299 297 296 294 298 299 300 299 294 292 286 278 273 262 266 258 252 252 256 257 251 241 241 233 234 226 231
256 264 269 276 278 273 271 280 294 298 299 300 298 288 292 298 295 290 287 287 289 290 291 291 291 290 289 284 271 268 268 271 270 259 257 254 258 247 242 240 233 235 231
266 258 264 266 271 275 274 274 282 285 290 294 293 290 291 290 290 290 291 289 288 287 286 287 287 289 286 286 282 265 263 267 271 273 272 274 267 254 249 242 237 236 235
272 273 272 273 273 278 273 276 276 279 286 288 287 288 287 287 289 291 291 289 290 289 287 285 286 285 286 285 282 281 268 258 263 268 268 263 262 261 259 255 244 238 236
279 279 277 275 277 284 288 285 288 289 289 297 293 296 300 297 294 302 297 299 296 294 286 287 286 286 284 284 284 282 282 272 261 262 261 268 261 258 260 256 247 242 238
276 277 278 279 277 279 284 285 290 292 293 292 297 295 300 299 301 300 298 298 298 292 290 290 293 289 290 290 288 285 280 282 271 271 264 261 263 263 259 252 244 244 242
275 282 282 282 280 281 279 283 286 288 291 295 294 294 287 296 303 305 298 296 297 292 297 295 288 291 289 291 290 286 287 286 285 282 279 271 266 264 265 257 250 243 238
286 285 288 288 286 287 288 290 291 291 293 293 298 299 296 299 294 299 298 291 293 295 297 295 295 293 292 290 290 286 286 286 283 282 282 281 278 272 265 263 261 253 244
273 285 287 296 297 298 293 290 291 290 290 292 291 300 296 298 292 293 296 299 297 298 298 298 297 293 297 295 291 291 289 285 285 283 280 278 276 277 273 267 265 266 253
272 266 269 277 282 283 285 286 290 294 296 295 296 295 293 294 292 301 295 299 300 300 299 296 297 295 298 300 298 299 297 291 290 286 282 278 274 273 272 268 267 264 266
20 350 334 324 316 308 304 303 300 298 295 291 289 292 293 293 293 292 295 296 296 298 297 292 298 296 294 295 294 297 295 293 291 290 289 285 282 281 276 277 273 267 264
16 3 354 347 340 333 327 323 321 318 313 311 310 309 304 298 291 289 290 292 297 296 297 292 296 297 297 294 293 295 293 296 291 290 291 286 283 286 281 278 273 271 266
7 357 350 346 341 336 332 328 326 323 319 319 316 314 311 311 309 303 294 290 286 289 295 296 295 296 295 297 294 293 291 296 289 289 289 281 287 286 281 278 276 273 271
357 351 345 340 337 334 329 325 322 319 316 315 314 312 310 309 306 304 301 295 289 280 282 295 295 294 295 293 293 294 293 293 289 296 291 292 289 285 283 281 279 275 273
346 341 336 332 328 325 321 318 316 315 314 313 313 312 311 312 309 308 305 300 292 287 281 287 290 295 291 290 296 292 293 291 294 291 297 294 291 285 282 281 280 279 276
337 332 329 325 322 321 320 318 317 316 315 314 315 313 313 312 309 309 307 303 297 292 284 285 293 295 294 295 293 295 296 295 293 296 297 296 294 289 285 282 280 281 280
328 325 323 322 322 322 321 319 317 315 314 313 312 311 311 310 309 308 306 304 302 297 292 287 291 299 298 300 302 299 297 296 294 299 299 298 297 295 291 288 284 280 278
322 324 325 325 325 325 324 322 319 318 316 316 316 317 316 314 312 311 309 307 306 303 300 297 294 295 297 300 298 301 298 300 300 301 300 298 299 298 296 294 287 282 279
326 328 328 327 326 325 326 324 321 319 318 318 319 319 319 317 314 310 308 307 307 304 302 298 292 295 298 301 300 302 300 301 298 299 301 300 300 301 301 294 288 287 279
328 327 328 327 326 327 326 323 320 318 318 319 320 320 320 319 317 313 308 306 306 303 300 299 299 298 301 303 303 301 298 297 296 297 297 298 300 300 300 294 288 279 232
326 325 325 324 324 326 326 325 322 318 317 317 318 319 318 318 318 316 313 311 307 305 304 302 300 298 298 300 303 302 302 300 297 298 297 294 296 297 297 294 282 260 225
323 322 322 322 322 324 322 321 318 316 315 315 316 318 318 318 319 319 318 316 316 312 311 309 302 303 302 304 302 300 298 296 298 298 300 286 295 298 304 300 282 242 214
321 320 321 321 321 321 318 318 318 315 315 316 317 318 319 319 324 328 320 313 314 317 318 314 312 309 308 304 301 303 304 305 300 291 299 293 293 301 312 311 235 190 200
323 322 321 320 319 319 320 319 319 318 317 318 319 321 324 328 329 324 320 317 316 323 328 326 326 328 329 327 328 324 322 317 306 300 332 302 300 280 313 300 293 180 181
Wind_Speed_850mb
9 9 9 10 10 9 10 10 9 8 9 10 11 13 15 15 16 16 20 21 21 22 22 21 22 23 22 21 22 22 22 21 24 25 25 26 25 24 25 25 26 25 24
14 15 14 14 14 14 15 15 15 16 16 16 16 17 18 20 21 23 25 31 32 31 30 30 31 29 28 27 27 26 28 29 31 31 29 32 32 32 32 34 35 32 31
21 20 20 20 20 18 17 18 22 24 25 27 29 31 34 35 37 39 40 43 47 47 46 44 42 42 39 39 39 38 37 39 39 41 39 36 37 40 40 43 41 39 37
24 25 25 26 25 26 23 22 27 32 34 37 41 42 39 46 47 49 50 54 56 59 60 58 56 55 54 53 50 49 48 49 47 52 53 49 46 46 46 48 51 49 48
23 26 29 28 31 29 30 30 32 38 41 44 49 52 55 57 58 60 63 64 64 66 69 68 68 66 64 64 64 56 57 58 59 59 63 66 66 57 55 54 57 56 54
28 29 29 31 34 35 35 40 43 45 47 54 60 63 66 66 70 71 71 75 76 76 74 73 76 76 73 72 72 72 67 65 70 70 71 74 73 71 69 63 62 64 63
34 35 35 36 38 42 41 44 45 49 52 53 67 69 74 74 69 77 81 73 76 75 78 80 74 81 74 76 75 73 77 77 73 76 82 81 86 83 86 81 75 73 72
43 39 40 40 40 42 46 45 48 53 56 55 64 73 69 71 75 67 63 79 70 64 67 74 73 73 68 73 71 74 79 81 83 79 82 87 90 98 95 94 89 86 83
33 34 34 34 38 39 44 45 48 51 57 58 58 62 43 56 62 76 63 66 67 72 77 72 70 80 76 77 79 78 85 79 78 83 88 86 91 95 95 104 102 96 92
26 27 30 32 34 36 41 42 43 49 51 59 59 66 67 70 70 65 67 76 80 76 80 84 87 82 83 82 84 88 85 83 83 85 84 86 85 89 97 92 101 112 107
17 18 26 29 30 33 38 41 44 48 51 58 60 66 69 71 75 71 91 79 85 95 92 89 84 89 84 92 91 85 82 79 78 82 84 84 86 87 90 94 99 95 112
16 25 29 33 35 37 37 41 44 47 51 55 61 63 69 71 72 80 84 100 97 100 97 91 91 84 86 85 80 76 72 69 70 72 77 80 84 87 87 88 96 101 101
7 8 12 15 19 24 29 34 38 42 48 53 57 63 64 68 73 75 77 94 102 108 90 83 91 79 77 78 78 76 74 71 69 69 70 70 71 75 78 83 88 94 102
14 16 19 21 24 27 32 35 38 40 45 47 51 54 58 61 58 68 71 75 94 103 100 84 76 75 75 71 78 76 75 78 74 72 75 76 77 81 83 84 84 85 91
18 22 26 29 31 35 37 41 45 48 49 52 55 56 58 61 62 61 60 65 69 88 116 90 82 79 79 83 86 86 85 89 82 82 78 78 82 84 84 84 87 88 84
24 28 31 35 39 42 46 49 51 52 57 56 58 61 62 64 65 65 66 65 67 74 93 114 94 85 87 89 87 92 94 79 87 86 80 81 81 82 83 84 86 88 90
32 36 40 44 49 53 56 59 60 62 64 66 64 67 69 67 70 71 72 74 70 69 83 116 101 97 98 97 100 94 89 90 87 86 85 85 78 77 80 86 89 93 94
37 44 48 53 55 56 58 61 65 66 68 72 73 75 76 75 76 76 78 80 79 76 76 93 112 99 87 91 96 98 94 91 93 90 86 86 80 80 80 82 86 89 93
47 51 54 55 55 57 59 61 66 69 70 72 73 74 76 77 80 80 81 83 80 78 75 77 98 98 97 87 92 89 94 92 87 87 85 85 82 79 80 82 83 84 87
49 48 50 54 58 61 63 68 72 76 78 79 78 78 79 78 80 82 86 86 86 84 78 76 82 87 84 89 83 86 91 92 96 96 91 86 84 81 77 73 73 76 79
48 53 57 59 63 67 71 75 79 83 85 87 85 83 81 80 79 79 84 88 81 79 78 70 74 76 80 85 85 91 94 97 98 96 94 93 81 79 72 61 61 59 53
54 58 62 68 71 73 75 77 80 87 90 90 92 90 89 89 85 81 78 77 70 65 69 68 74 80 88 88 88 86 81 80 82 78 75 88 79 74 62 53 52 43 41
61 65 68 72 75 75 77 80 82 87 90 89 89 92 93 90 87 83 79 75 69 64 63 65 72 77 81 80 78 80 79 79 82 80 71 80 73 65 53 47 41 38 46
68 72 74 75 77 75 76 77 80 82 84 84 82 83 85 86 80 75 77 74 71 71 68 60 57 66 68 69 68 73 75 78 77 72 59 60 56 49 42 32 25 25 36
72 74 73 74 76 75 75 75 75 75 78 79 77 78 78 78 75 61 61 69 71 67 62 60 61 59 54 53 54 60 62 59 56 45 38 35 33 34 29 19 7 11 33
70 72 72 72 75 79 76 75 74 72 75 77 76 75 73 68 57 52 56 62 70 67 61 61 50 40 37 40 40 36 35 32 32 29 23 17 24 13 4 8 8 25 37
Wind_Direction_850mb
271 276 282 291 297 304 311 318 315 319 322 328 324 330 334 339 336 325 316 319 317 317 315 318 311 308 304 301 298 288 281 260 258 262 246 236 234 229 219 216 211 223 217
267 270 274 280 286 293 297 303 304 306 307 313 313 310 308 308 300 298 291 298 305 305 303 302 302 299 287 287 286 283 269 254 251 262 258 251 240 242 231 222 221 222 230
264 272 278 281 282 282 291 305 310 309 307 301 306 305 302 303 299 297 296 294 298 299 300 299 294 292 286 278 273 262 266 258 252 252 256 257 251 241 241 233 234 226 231
256 264 269 276 278 273 271 280 294 298 299 300 298 288 292 298 295 290 287 287 289 290 291 291 291 290 289 284 271 268 268 271 270 259 257 254 258 247 242 240 233 235 231
266 258 264 266 271 275 274 274 282 285 290 294 293 290 291 290 290 290 291 289 288 287 286 287 287 289 286 286 282 265 263 267 271 273 272 274 267 254 249 242 237 236 235
272 273 272 273 273 278 273 276 276 279 286 288 287 288 287 287 289 291 291 289 290 289 287 285 286 285 286 285 282 281 268 258 263 268 268 263 262 261 259 255 244 238 236
279 279 277 275 277 284 288 285 288 289 289 297 293 296 300 297 294 302 297 299 296 294 286 287 286 286 284 284 284 282 282 272 261 262 261 268 261 258 260 256 247 242 238
276 277 278 279 277 279 284 285 290 292 293 292 297 295 300 299 301 300 298 298 298 292 290 290 293 289 290 290 288 285 280 282 271 271 264 261 263 263 259 252 244 244 242
275 282 282 282 280 281 279 283 286 288 291 295 294 294 287 296 303 305 298 296 297 292 297 295 288 291 289 291 290 286 287 286 285 282 279 271 266 264 265 257 250 243 238
286 285 288 288 286 287 288 290 291 291 293 293 298 299 296 299 294 299 298 291 293 295 297 295 295 293 292 290 290 286 286 286 283 282 282 281 278 272 265 263 261 253 244
273 285 287 296 297 298 293 290 291 290 290 292 291 300 296 298 292 293 296 299 297 298 298 298 297 293 297 295 291 291 289 285 285 283 280 278 276 277 273 267 265 266 253
272 266 269 277 282 283 285 286 290 294 296 295 296 295 293 294 292 301 295 299 300 300 299 296 297 295 298 300 298 299 297 291 290 286 282 278 274 273 272 268 267 264 266
20 350 334 324 316 308 304 303 300 298 295 291 289 292 293 293 293 292 295 296 296 298 297 292 298 296 294 295 294 297 295 293 291 290 289 285 282 281 276 277 273 267 264
16 3 354 347 340 333 327 323 321 318 313 311 310 309 304 298 291 289 290 292 297 296 297 292 296 297 297 294 293 295 293 296 291 290 291 286 283 286 281 278 273 271 266
7 357 350 346 341 336 332 328 326 323 319 319 316 314 311 311 309 303 294 290 286 289 295 296 295 296 295 297 294 293 291 296 289 289 289 281 287 286 281 278 276 273 271
357 351 345 340 337 334 329 325 322 319 316 315 314 312 310 309 306 304 301 295 289 280 282 295 295 294 295 293 293 294 293 293 289 296 291 292 289 285 283 281 279 275 273
346 341 336 332 328 325 321 318 316 315 314 313 313 312 311 312 309 308 305 300 292 287 281 287 290 295 291 290 296 292 293 291 294 291 297 294 291 285 282 281 280 279 276
337 332 329 325 322 321 320 318 317 316 315 314 315 313 313 312 309 309 307 303 297 292 284 285 293 295 294 295 293 295 296 295 293 296 297 296 294 289 285 282 280 281 280
328 325 323 322 322 322 321 319 317 315 314 313 312 311 311 310 309 308 306 304 302 297 292 287 291 299 298 300 302 299 297 296 294 299 299 298 297 295 291 288 284 280 278
322 324 325 325 325 325 324 322 319 318 316 316 316 317 316 314 312 311 309 307 306 303 300 297 294 295 297 300 298 301 298 300 300 301 300 298 299 298 296 294 287 282 279
326 328 328 327 326 325 326 324 321 319 318 318 319 319 319 317 314 310 308 307 307 304 302 298 292 295 298 301 300 302 300 301 298 299 301 300 300 301 301 294 288 287 279
328 327 328 327 326 327 326 323 320 318 318 319 320 320 320 319 317 313 308 306 306 303 300 299 299 298 301 303 303 301 298 297 296 297 297 298 300 300 300 294 288 279 232
326 325 325 324 324 326 326 325 322 318 317 317 318 319 318 318 318 316 313 311 307 305 304 302 300 298 298 300 303 302 302 300 297 298 297 294 296 297 297 294 282 260 225
323 322 322 322 322 324 322 321 318 316 315 315 316 318 318 318 319 319 318 316 316 312 311 309 302 303 302 304 302 300 298 296 298 298 300 286 295 298 304 300 282 242 214
321 320 321 321 321 321 318 318 318 315 315 316 317 318 319 319 324 328 320 313 314 317 318 314 312 309 308 304 301 303 304 305 300 291 299 293 293 301 312 311 235 190 200
323 322 321 320 319 319 320 319 319 318 317 318 319 321 324 328 329 324 320 317 316 323 328 326 326 328 329 327 328 324 322 317 306 300 332 302 300 280 313 300 293 180 181